1282435229699,97.5983
1282435289699,97.8282
1282435349699,98.0772
1282435409699,98.2319
1282435469699,98.2571
1282435529699,97.8747
1282435589699,97.7326
1282435649699,98.0009
1282435709699,98.3587
1282435769699,98.1448
1282435829699,97.8342
1282435889699,98.1187
1282435949699,98.1401
1282436009699,98.2933
1282436069699,98.0114
1282436129699,98.5367
1282436189699,98.1482
1282436249699,97.9672
1282436309699,98.0127
1282436369699,98.3786
1282436429699,98.3827
1282436489699,97.9292
1282436549699,97.8951
1282436609699,97.9107
1282436669699,97.5024
1282436729699,97.6133
1282436789699,98.0838
1282436849699,97.9713
1282436909699,98.0771
1282436969699,97.9489
1282437029699,97.9360
1282437089699,98.5002
1282437149699,97.7896
1282437209699,97.8136
1282437269699,97.7773
1282437329699,98.2585
1282437389699,97.8429
1282437449699,98.2078
1282437509699,98.0430
1282437569699,97.9386
1282437629699,97.6653
1282437689699,97.9387
1282437749699,98.3541
1282437809699,97.8839
1282437869699,97.8375
1282437929699,97.7835
1282437989699,98.4844
1282438049699,97.7314
1282438109699,97.9720
1282438169699,97.5412
1282438229699,97.9106
1282438289699,97.6689
1282438349699,98.0196
1282438409699,97.7846
1282438469699,98.0467
1282438529699,98.1646
1282438589699,97.7991
1282438649699,97.6281
1282438709699,97.4536
1282438769699,98.0119
1282438829709,98.3689
1282438889709,97.8203
1282438949709,98.2180
1282439009709,98.3603
1282439069709,98.1709
1282439129709,97.7273
1282439189709,97.9605
1282439249709,97.7172
1282439309709,97.6668
1282439369709,98.2386
1282439429709,98.2651
1282439489709,97.7000
1282439549709,98.0057
1282439609709,98.0164
1282439669709,97.9126
1282439729709,97.9329
1282439789709,97.6621
1282439849709,98.1097
1282439909709,97.8527
1282439969709,97.8056
1282440029709,97.9968
1282440089709,98.2036
1282440149709,97.8051
1282440209709,97.7875
1282440269709,98.1394
1282440329709,98.3237
1282440389709,97.3704
1282440449709,97.8641
1282440509709,98.2305
1282440569709,97.9909
1282440629709,97.7513
1282440689709,98.0314
1282440749709,98.1027
1282440809709,98.1799
1282440869709,98.1584
1282440929709,98.5071
1282440989709,98.0356
1282441049709,98.3374
1282441109709,97.4279
1282441169709,97.5159
1282441229709,97.8643
1282441289709,97.7755
1282441349709,97.6057
1282441409709,97.7634
1282441469709,97.9775
1282441529709,97.8778
1282441589709,97.7976
1282441649709,97.8945
1282441709709,97.7407
1282441769709,97.6827
1282441829709,97.7627
1282441889709,97.8079
1282441949709,98.0488
1282442009709,98.3095
1282442069709,97.8224
1282442129709,97.7348
1282442189709,97.7714
1282442249709,98.1143
1282442309709,98.2896
1282442369709,97.2969
1282442429718,97.8370
1282442489718,98.2381
1282442549718,97.8510
1282442609718,98.1471
1282442669718,97.7650
1282442729718,97.3632
1282442789718,97.3555
1282442849718,97.4404
1282442909718,97.5145
1282442969718,97.9870
1282443029718,98.1648
1282443089718,97.1945
1282443149718,97.7038
1282443209718,97.3272
1282443269718,97.8589
1282443329718,98.2633
1282443389718,97.4372
1282443449718,97.1796
1282443509718,97.8210
1282443569718,97.5921
1282443629718,97.8600
1282443689718,97.7658
1282443749718,98.2118
1282443809718,98.0853
1282443869718,97.4926
1282443929718,97.6889
1282443989718,97.8045
1282444049718,97.4393
1282444109718,98.1149
1282444169718,97.9450
1282444229718,97.9816
1282444289718,97.9146
1282444349718,97.2665
1282444409718,97.9007
1282444469718,98.1125
1282444529718,97.7004
1282444589718,97.6484
1282444649718,97.6880
1282444709718,97.7043
1282444769718,97.9565
1282444829718,98.0013
1282444889718,97.9027
1282444949718,97.2931
1282445009718,97.8532
1282445069718,97.9137
1282445129718,98.1394
1282445189718,97.8794
1282445249718,97.8349
1282445309718,98.2244
1282445369718,97.8160
1282445429718,98.0041
1282445489718,98.0026
1282445549718,97.8812
1282445609718,98.1742
1282445669718,98.0216
1282445729718,97.7246
1282445789718,97.9912
1282445849718,97.8407
1282445909718,97.9031
1282445969718,97.8863
1282446029727,98.0629
1282446089727,97.9203
1282446149727,97.3812
1282446209727,98.0242
1282446269727,97.6288
1282446329727,98.0689
1282446389727,97.8795
1282446449727,98.0149
1282446509727,97.7698
1282446569727,98.0605
1282446629727,97.6827
1282446689727,97.7823
1282446749727,97.5761
1282446809727,97.9695
1282446869727,98.0743
1282446929727,97.8964
1282446989727,97.9159
1282447049727,97.5030
1282447109727,98.1798
1282447169727,97.9697
1282447229727,98.1008
1282447289727,98.2439
1282447349727,97.4002
1282447409727,98.1808
1282447469727,97.5379
1282447529727,97.7763
1282447589727,98.0503
1282447649727,97.9955
1282447709727,97.7053
1282447769727,98.2987
1282447829727,97.9124
1282447889727,97.5302
1282447949727,97.7081
1282448009727,97.8079
1282448069727,97.8333
1282448129727,97.2797
1282448189727,97.7568
1282448249727,98.1129
1282448309727,97.4917
1282448369727,98.1479
1282448429727,97.2153
1282448489727,97.6096
1282448549727,97.8095
1282448609727,97.9251
1282448669727,97.6735
1282448729727,97.4962
1282448789727,97.4289
1282448849727,97.7530
1282448909727,97.5602
1282448969727,97.8509
1282449029727,97.9640
1282449089727,97.1679
1282449149727,97.8901
1282449209727,98.5964
1282449269727,97.2459
1282449329727,97.4480
1282449389727,97.8596
1282449449727,97.3708
1282449509727,97.8263
1282449569727,97.9062
1282449629736,97.7279
1282449689736,97.6805
1282449749736,97.5528
1282449809736,97.8239
1282449869736,97.3125
1282449929736,97.6593
1282449989736,97.6926
1282450049736,97.1420
1282450109736,97.2127
1282450169736,97.5056
1282450229736,97.7310
1282450289736,97.3208
1282450349736,97.4025
1282450409736,97.6613
1282450469736,97.7135
1282450529736,97.4403
1282450589736,98.0441
1282450649736,97.5014
1282450709736,97.5482
1282450769736,97.4705
1282450829736,97.5212
1282450889736,97.5756
1282450949736,97.7158
1282451009736,97.3868
1282451069736,97.3439
1282451129736,96.8268
1282451189736,97.3706
1282451249736,96.9417
1282451309736,99.0644
1282451369736,97.5793
1282451429736,97.3896
1282451489736,97.2762
1282451549736,97.5349
1282451609736,97.4237
1282451669736,96.7148
1282451729736,97.3417
1282451789736,97.5208
1282451849736,97.9380
1282451909736,97.5578
1282451969736,97.7528
1282452029736,97.8680
1282452089736,97.3026
1282452149736,97.8081
1282452209736,97.0809
1282452269736,97.4092
1282452329736,97.3101
1282452389736,96.9998
1282452449736,96.9977
1282452509736,97.4658
1282452569736,97.2670
1282452629736,97.0563
1282452689736,97.5703
1282452749736,97.1694
1282452809736,97.1342
1282452869736,97.4286
1282452929736,97.4361
1282452989736,97.2777
1282453049736,97.7433
1282453109736,96.7977
1282453169736,97.8599
1282453229745,97.4955
1282453289745,97.5147
1282453349745,97.1290
1282453409745,97.1876
1282453469745,97.3417
1282453529745,96.8934
1282453589745,97.2060
1282453649745,97.1762
1282453709745,97.9152
1282453769745,97.8337
1282453829745,97.2674
1282453889745,97.7292
1282453949745,97.5517
1282454009745,97.3308
1282454069745,97.3028
1282454129745,97.6872
1282454189745,97.3166
1282454249745,97.6284
1282454309745,98.0552
1282454369745,97.6091
1282454429745,97.5059
1282454489745,97.3290
1282454549745,97.1372
1282454609745,97.5308
1282454669745,97.6428
1282454729745,97.4204
1282454789745,97.7054
1282454849745,97.8180
1282454909745,97.9152
1282454969745,97.2735
1282455029745,97.5176
1282455089745,97.2613
1282455149745,97.2238
1282455209745,97.4390
1282455269745,98.1683
1282455329745,98.2113
1282455389745,97.6782
1282455449745,97.4201
1282455509745,97.5116
1282455569745,97.6554
1282455629745,97.6865
1282455689745,97.6883
1282455749745,98.1486
1282455809745,97.3418
1282455869745,98.1169
1282455929745,97.9028
1282455989745,98.0929
1282456049745,97.8616
1282456109745,97.8275
1282456169745,98.0641
1282456229745,97.5424
1282456289745,98.1195
1282456349745,97.8192
1282456409745,97.8391
1282456469745,98.0492
1282456529745,98.1323
1282456589745,97.7721
1282456649745,98.1191
1282456709745,97.6106
1282456769745,97.7933
1282456829754,97.8407
1282456889754,98.0155
1282456949754,97.3760
1282457009754,97.7137
1282457069754,98.2849
1282457129754,97.9465
1282457189754,97.3999
1282457249754,97.9007
1282457309754,97.5104
1282457369754,97.6875
1282457429754,97.7614
1282457489754,97.4829
1282457549754,97.7636
1282457609754,97.0198
1282457669754,97.5394
1282457729754,97.6186
1282457789754,98.0599
1282457849754,97.8121
1282457909754,97.9481
1282457969754,97.9409
1282458029754,98.3123
1282458089754,97.8221
1282458149754,98.0061
1282458209754,97.4288
1282458269754,97.6223
1282458329754,97.5468
1282458389754,97.3431
1282458449754,97.5647
1282458509754,97.8549
1282458569754,97.9477
1282458629754,97.6556
1282458689754,97.8178
1282458749754,97.8408
1282458809754,97.6574
1282458869754,97.2620
1282458929754,97.8681
1282458989754,97.2240
1282459049754,98.2722
1282459109754,97.7980
1282459169754,97.5150
1282459229754,97.6255
1282459289754,98.0480
1282459349754,97.8298
1282459409754,98.1304
1282459469754,98.0267
1282459529754,97.4890
1282459589754,97.6017
1282459649754,97.4635
1282459709754,97.6659
1282459769754,97.7067
1282459829754,97.6485
1282459889754,97.4725
1282459949754,97.5921
1282460009754,97.7433
1282460069754,97.6944
1282460129754,97.5728
1282460189754,97.5338
1282460249754,98.1655
1282460309754,97.5861
1282460369754,97.6360
1282460429764,97.6781
1282460489764,97.4462
1282460549764,97.4565
1282460609764,97.4442
1282460669764,97.5481
1282460729763,97.2772
1282460789763,97.6799
1282460849763,97.3316
1282460909764,97.1488
1282460969764,97.7871
1282461029764,97.3837
1282461089764,97.8460
1282461149764,97.5599
1282461209764,97.5442
1282461269764,97.0980
1282461329764,97.1923
1282461389764,97.3491
1282461449764,97.7845
1282461509764,97.6535
1282461569764,97.3382
1282461629764,96.8152
1282461689764,97.3752
1282461749764,97.2589
1282461809764,97.6812
1282461869764,97.1715
1282461929764,98.1525
1282461989764,97.0225
1282462049764,96.8620
1282462109763,97.4712
1282462169763,97.2813
1282462229763,97.2738
1282462289764,97.6349
1282462349764,97.6187
1282462409764,97.2200
1282462469764,97.5359
1282462529764,97.2891
1282462589764,97.5130
1282462649764,97.6438
1282462709764,97.7204
1282462769764,97.2507
1282462829764,97.6088
1282462889764,97.9926
1282462949764,97.7193
1282463009764,97.2666
1282463069764,97.2113
1282463129764,97.2630
1282463189764,97.6480
1282463249764,97.1173
1282463309764,97.2734
1282463369764,97.1072
1282463429763,97.1167
1282463489763,97.1917
1282463549763,97.4176
1282463609764,97.1516
1282463669764,97.5411
1282463729764,97.3667
1282463789764,97.4581
1282463849764,96.5815
1282463909764,96.9574
1282463969764,96.9615
1282464029773,97.1019
1282464089773,97.2930
1282464149773,96.8754
1282464209773,97.5854
1282464269773,97.2074
1282464329773,97.4350
1282464389773,97.2170
1282464449773,97.3703
1282464509773,96.9103
1282464569773,97.1337
1282464629773,96.7231
1282464689773,96.6466
1282464749773,96.3401
1282464809773,97.0523
1282464869773,97.2962
1282464929773,97.2847
1282464989773,96.9445
1282465049773,96.7370
1282465109773,96.7861
1282465169773,96.7186
1282465229773,96.8027
1282465289773,96.9023
1282465349773,97.4531
1282465409773,97.1050
1282465469773,97.2619
1282465529773,96.8416
1282465589773,96.8153
1282465649773,96.3165
1282465709773,96.8870
1282465769773,97.2926
1282465829773,96.4869
1282465889773,96.8598
1282465949773,96.4553
1282466009773,96.9417
1282466069773,96.9117
1282466129773,96.5719
1282466189773,97.2291
1282466249773,96.5685
1282466309773,97.0703
1282466369773,96.7458
1282466429773,96.9936
1282466489773,97.3684
1282466549773,96.7302
1282466609773,96.9878
1282466669773,96.8337
1282466729773,96.8450
1282466789773,96.7506
1282466849773,96.9660
1282466909773,97.2221
1282466969773,96.8382
1282467029773,97.5100
1282467089773,97.2848
1282467149773,97.1945
1282467209773,97.3407
1282467269773,97.3239
1282467329773,96.7687
1282467389773,96.6249
1282467449773,97.2928
1282467509773,96.6276
1282467569773,96.6306
1282467629782,97.2140
1282467689782,96.4916
1282467749782,96.8259
1282467809782,96.8193
1282467869782,97.2505
1282467929782,97.2360
1282467989782,96.7622
1282468049782,97.2439
1282468109782,97.3235
1282468169782,97.4004
1282468229782,97.1911
1282468289782,97.3733
1282468349782,96.6470
1282468409782,97.4086
1282468469782,97.3349
1282468529782,97.5144
1282468589782,97.2842
1282468649782,97.2080
1282468709782,97.2329
1282468769782,97.0687
1282468829782,97.2755
1282468889782,96.9614
1282468949782,96.8288
1282469009782,97.3840
1282469069782,97.3984
1282469129782,96.9518
1282469189782,96.8898
1282469249782,96.8557
1282469309782,96.7078
1282469369782,96.9001
1282469429782,97.1190
1282469489782,96.6693
1282469549782,96.6891
1282469609782,97.3770
1282469669782,97.5387
1282469729782,96.8226
1282469789782,96.7532
1282469849782,97.4063
1282469909782,96.9856
1282469969782,96.9771
1282470029782,97.1417
1282470089782,97.6266
1282470149782,97.0848
1282470209782,96.8700
1282470269782,97.2498
1282470329782,97.1022
1282470389782,97.1650
1282470449782,97.3779
1282470509782,97.3719
1282470569782,97.3267
1282470629782,96.8942
1282470689782,96.6557
1282470749782,97.2196
1282470809782,96.8453
1282470869782,96.7656
1282470929782,97.0636
1282470989782,96.6875
1282471049782,96.8778
1282471109782,97.8122
1282471169782,97.3973
1282471229792,96.9827
1282471289792,97.5441
1282471349792,97.3189
1282471409792,96.5806
1282471469792,96.9184
1282471529792,97.0206
1282471589792,97.4926
1282471649792,97.1216
1282471709792,96.6884
1282471769792,96.7517
1282471829792,96.8627
1282471889792,96.5687
1282471949792,96.9991
1282472009792,96.1156
1282472069792,96.9820
1282472129792,96.7975
1282472189792,97.4486
1282472249792,96.8817
1282472309792,96.9130
1282472369792,97.0933
1282472429792,97.3720
1282472489792,97.0620
1282472549792,96.6238
1282472609792,96.4338
1282472669792,97.2614
1282472729792,97.4667
1282472789792,97.2237
1282472849792,96.9131
1282472909792,97.3429
1282472969792,97.3958
1282473029792,97.6570
1282473089792,97.2491
1282473149792,97.6338
1282473209792,97.5201
1282473269792,97.0666
1282473329792,97.0339
1282473389792,97.4430
1282473449792,97.2803
1282473509792,97.3477
1282473569792,97.3092
1282473629792,97.2268
1282473689792,97.7829
1282473749792,97.0700
1282473809792,97.3575
1282473869792,96.8707
1282473929792,97.1030
1282473989792,96.7562
1282474049792,97.2893
1282474109792,96.6815
1282474169792,96.8753
1282474229792,97.2597
1282474289792,97.2964
1282474349792,97.0720
1282474409792,96.9929
1282474469792,96.8035
1282474529792,97.8937
1282474589792,97.5528
1282474649792,96.4429
1282474709792,97.1306
1282474769792,97.7595
1282474829801,97.2761
1282474889801,97.3006
1282474949801,96.8616
1282475009801,96.9335
1282475069801,97.5309
1282475129801,97.0585
1282475189801,96.7906
1282475249801,97.0074
1282475309801,97.4268
1282475369801,97.1773
1282475429801,96.8346
1282475489801,96.9340
1282475549801,97.0361
1282475609801,97.1069
1282475669801,97.4366
1282475729801,97.5291
1282475789801,97.2773
1282475849801,97.5971
1282475909801,97.7986
1282475969801,97.2390
1282476029801,97.3589
1282476089801,97.4135
1282476149801,97.2387
1282476209801,96.8455
1282476269801,97.2295
1282476329801,97.0918
1282476389801,97.2692
1282476449801,97.4668
1282476509801,97.1664
1282476569801,97.1283
1282476629801,97.4724
1282476689801,97.1080
1282476749801,96.6230
1282476809801,96.8382
1282476869801,97.0137
1282476929801,97.2745
1282476989801,97.0993
1282477049801,97.3938
1282477109801,97.1606
1282477169801,96.8905
1282477229801,96.6055
1282477289801,97.1090
1282477349801,97.3324
1282477409801,97.3938
1282477469801,97.3206
1282477529801,97.1510
1282477589801,97.1188
1282477649801,97.4199
1282477709801,96.7662
1282477769801,97.2193
1282477829801,97.1101
1282477889801,97.1341
1282477949801,96.6689
1282478009801,97.1706
1282478069801,97.1138
1282478129801,96.5375
1282478189801,97.1125
1282478249801,96.8207
1282478309801,96.5238
1282478369801,96.9396
1282478429811,96.7096
1282478489811,97.2457
1282478549811,97.0482
1282478609811,97.2528
1282478669811,96.7822
1282478729811,96.8061
1282478789811,97.2393
1282478849811,97.3557
1282478909811,97.5528
1282478969811,97.2811
1282479029811,97.0167
1282479089811,96.9805
1282479149811,96.9823
1282479209811,96.9252
1282479269811,96.9541
1282479329811,96.7678
1282479389811,96.6497
1282479449811,96.6972
1282479509811,96.9814
1282479569811,97.0335
1282479629811,97.4195
1282479689811,97.0747
1282479749811,97.1891
1282479809811,96.9011
1282479869811,97.1729
1282479929811,97.2823
1282479989811,97.1447
1282480049811,97.2871
1282480109811,97.0468
1282480169811,96.9200
1282480229811,97.0943
1282480289811,96.5287
1282480349811,97.0545
1282480409811,96.8528
1282480469811,96.6869
1282480529811,96.6190
1282480589811,97.0309
1282480649811,96.9542
1282480709811,96.8727
1282480769811,97.0461
1282482029820,97.0430
1282482089820,97.0668
1282482149820,96.6690
1282482209820,96.4621
1282482269820,96.3984
1282482329820,96.8365
1282482389820,96.7710
1282482449820,96.1977
1282482509820,96.6534
1282482569820,96.4748
1282482629820,96.7858
1282482689820,96.8532
1282482749820,96.4738
1282482809820,96.5340
1282482869820,96.5841
1282482929820,96.2497
1282482989820,96.8616
1282483049820,96.6891
1282483109820,96.5716
1282483169820,96.3413
1282483229820,96.8422
1282483289820,96.2676
1282483349820,96.2596
1282483409820,96.6817
1282483469820,96.1758
1282483529820,96.5242
1282483589820,96.5931
1282483649820,96.4959
1282483709820,96.2969
1282483769820,96.3947
1282483829820,96.3584
1282483889820,96.4164
1282483949820,96.3068
1282484009820,95.8817
1282484069820,96.6868
1282484129820,96.5690
1282484189820,96.1540
1282484249820,96.1042
1282484309820,96.7754
1282484369820,96.4971
1282484429820,96.5091
1282484489820,96.9882
1282484549820,96.3748
1282484609820,96.3284
1282484669820,96.7421
1282484729820,96.2078
1282484789820,96.6429
1282484849820,96.2384
1282484909820,96.0108
1282484969820,96.3506
1282485029820,96.6639
1282485089820,96.0061
1282485149820,96.5118
1282485209820,96.0991
1282485269820,96.1302
1282485329820,95.9303
1282485389820,96.3194
1282485449820,96.1013
1282485509820,96.1498
1282485569820,96.4014
1282485629830,96.1758
1282485689830,95.7485
1282485749830,96.1644
1282485809830,96.5817
1282485869830,95.9555
1282485929830,96.3185
1282485989830,96.4786
1282486049830,96.3407
1282486109830,96.5247
1282486169830,96.6725
1282486229830,96.3890
1282486289830,95.8089
1282486349830,96.0597
1282486409830,96.1379
1282486469830,96.6270
1282486529830,96.6379
1282486589830,96.5345
1282486649830,96.0832
1282486709830,96.4650
1282486769830,96.6300
1282486829830,96.7089
1282486889830,95.9279
1282486949830,96.1368
1282487009830,96.4126
1282487069830,96.2285
1282487129830,96.9024
1282487189830,95.8932
1282487249830,95.9799
1282487309830,95.7981
1282487369830,95.8351
1282487429830,96.4551
1282487489830,95.7639
1282487549830,96.0837
1282487609830,96.2201
1282487669830,96.1495
1282487729830,96.2037
1282487789830,95.8866
1282487849830,96.1656
1282487909830,96.0862
1282487969830,96.2580
1282488029830,96.2622
1282488089830,95.7106
1282488149830,96.1445
1282488209830,96.4105
1282488269830,96.0356
1282488329830,95.7924
1282488389830,96.1467
1282488449830,96.1237
1282488509830,96.0470
1282488569830,95.9092
1282488629830,95.6748
1282488689830,96.3387
1282488749830,96.4722
1282488809830,96.0344
1282488869830,95.9266
1282488929830,96.5131
1282488989830,96.1965
1282489049830,96.0325
1282489109830,95.8190
1282489169830,96.5183
1282489229841,96.0725
1282489289841,96.7881
1282489349841,95.8242
1282489409841,96.2464
1282489469841,96.1780
1282489529841,96.5707
1282489589841,96.5991
1282489649841,96.3293
1282489709841,96.8541
1282489769841,96.5033
1282489829841,95.8745
1282489889841,95.7673
1282489949841,96.9269
1282490009841,96.3929
1282490069841,95.9806
1282490129841,96.6067
1282490189841,96.0853
1282490249841,96.2766
1282490309841,96.8234
1282490369841,96.0184
1282490429841,96.2491
1282490489841,96.1511
1282490549841,96.6166
1282490609841,96.4676
1282490669841,96.1665
1282490729841,96.6321
1282490789841,96.2340
1282490849841,96.2960
1282490909841,96.7579
1282490969841,96.3838
1282491029841,95.9069
1282491089841,96.2303
1282491149841,96.4914
1282491209841,96.6187
1282491269841,96.3020
1282491329841,96.2819
1282491389841,96.1149
1282491449841,96.5393
1282491509841,96.7382
1282491569841,96.2906
1282491629841,96.2232
1282491689841,95.9146
1282491749841,96.3911
1282491809841,96.4954
1282491869841,96.2871
1282491929841,95.9386
1282491989841,96.3206
1282492049841,96.3835
1282492109841,96.1455
1282492169841,96.4721
1282492229841,96.3863
1282492289841,96.1452
1282492349841,96.2853
1282492409841,95.8522
1282492469841,96.3220
1282492529841,96.2371
1282492589841,96.5400
1282492649841,96.1899
1282492709841,96.8823
1282492769841,96.3140
1282492829851,96.1595
1282492889851,96.6046
1282492949851,96.4077
1282493009851,95.6872
1282493069851,96.4139
1282493129851,96.1226
1282493189851,96.1491
1282493249851,96.0046
1282493309851,95.9893
1282493369851,96.2176
1282493429851,96.3382
1282493489851,96.2704
1282493549851,96.3444
1282493609851,96.2496
1282493669851,96.4904
1282493729851,95.9351
1282493789851,95.9045
1282493849851,96.4980
1282493909851,96.4553
1282493969851,95.7256
1282494029851,95.7959
1282494089851,95.6691
1282494149851,96.2430
1282494209851,95.9960
1282494269851,95.8602
1282494329851,95.9572
1282494389851,95.7957
1282494449851,96.0693
1282494509851,95.7634
1282494569851,95.6038
1282494629851,96.2772
1282494689851,95.7190
1282494749851,96.0494
1282494809851,96.0268
1282494869851,95.6192
1282494929851,96.1340
1282494989851,96.0152
1282495049851,95.9632
1282495109851,96.1594
1282495169851,95.8902
1282495229851,96.1359
1282495289851,96.0249
1282495349851,95.9267
1282495409851,95.8196
1282495469851,95.8669
1282495529851,96.1021
1282495589851,95.9291
1282495649851,95.6135
1282495709851,95.6633
1282495769851,95.4407
1282495829851,95.9366
1282495889851,95.6628
1282495949851,95.6139
1282496009851,95.9879
1282496069851,95.4346
1282496129851,95.7872
1282496189851,95.8472
1282496249851,96.3635
1282496309851,95.9576
1282496369851,95.7049
1282496429862,95.3503
1282496489862,95.2037
1282496549862,95.6214
1282496609862,95.6399
1282496669862,95.2951
1282496729862,95.3811
1282496789862,95.9131
1282496849862,95.3147
1282496909862,95.2659
1282496969862,95.3546
1282497029862,95.6777
1282497089862,95.2754
1282497149862,95.4007
1282497209862,95.6262
1282497269862,95.8958
1282497329862,95.6607
1282497389862,95.9353
1282497449862,95.7820
1282497509862,95.9062
1282497569862,95.5685
1282497629862,95.9654
1282497689862,95.9512
1282497749862,95.8936
1282497809862,95.6826
1282497869862,95.9861
1282497929862,95.6127
1282497989862,95.3443
1282498049862,95.9708
1282498109862,96.1624
1282498169862,95.6805
1282498229862,95.4789
1282498289862,95.7892
1282498349862,95.3883
1282498409862,95.2550
1282498469862,95.9286
1282498529862,95.7419
1282498589862,95.3840
1282498649862,95.4398
1282498709862,95.9361
1282498769862,95.6846
1282498829862,95.9229
1282498889862,95.4472
1282498949862,95.7921
1282499009862,95.6103
1282499069862,95.6229
1282499129862,95.4201
1282499189862,95.8414
1282499249862,95.5734
1282499309862,95.8631
1282499369862,95.2438
1282499429862,95.7327
1282499489862,95.8601
1282499549862,95.3634
1282499609862,95.3315
1282499669862,95.6040
1282499729862,95.1481
1282499789862,95.1999
1282499849862,95.5097
1282499909862,96.2501
1282499969862,95.9513
1282500029873,95.5200
1282500089873,95.9429
1282500149873,95.9242
1282500209873,95.6655
1282500269873,95.6756
1282500329873,95.7661
1282500389873,95.5133
1282500449873,95.6551
1282500509873,95.7748
1282500569873,95.5854
1282500629873,95.3067
1282500689873,96.0814
1282500749873,95.0900
1282500809873,95.9582
1282500869873,95.2036
1282500929873,95.5625
1282500989873,94.8212
1282501049873,95.4440
1282501109873,95.5946
1282501169873,95.5496
1282501229873,95.4462
1282501289873,95.6342
1282501349873,95.9390
1282501409873,95.4827
1282501469873,95.1174
1282501529873,95.3986
1282501589873,95.4976
1282501649873,95.7385
1282501709873,95.7480
1282501769873,95.5159